{"data":{"norad_id":52903,"epoch":"2026-05-25T02:25:37.886880Z","epoch_age_seconds":59583,"freshness":"FRESH","line1":"1 52903U 22067A   26145.10113295 -.00000167  00000+0  00000+0 0  9999","line2":"2 52903   0.0198 256.7299 0002455 107.3708 357.9942  1.00271081 14375","mean_motion":1.00271081,"eccentricity":0.0002455,"inclination_deg":0.0198,"raan_deg":256.7299,"arg_perigee_deg":107.3708,"mean_anomaly_deg":357.9942,"bstar":0,"rev_number":1437,"period_min":1436.1069868191,"perigee_km":35776.440828953,"apogee_km":35797.143809249,"semimajor_km":42164.929319101,"source":"CELESTRAK","updated_at":"2026-05-25T13:38:14.107992Z"}}